GW0774 Weather Reports


time (UTC)temp
F
wind
direction
speed
knots
gust
knots
rain 1hr
in
rain 24hr
in
rain mn
in
humidity
%
barometer
mb
20230208161039 53 0 0.0 0.9 0.00 0.00 0.00 89 1004.9
20230208160540 53 0 0.0 0.9 0.00 0.00 0.00 88 1004.9
20230208160043 53 0 0.0 0.9 0.00 0.00 0.00 88 1004.9
20230208155539 53 0 0.0 0.9 0.00 0.00 0.00 87 1005.0
20230208155039 54 0 0.0 0.9 0.00 0.00 0.00 86 1005.0
20230208154605 54 0 0.0 0.9 0.00 0.00 0.00 85 1005.1
20230208154039 55 133 0.0 2.6 0.00 0.00 0.00 84 1005.2
20230208153540 56 92 0.0 2.6 0.00 0.00 0.00 84 1005.2
20230208153059 56 90 0.0 2.6 0.00 0.00 0.00 85 1005.2
20230208152539 56 90 0.9 1.7 0.00 0.00 0.00 84 1005.1
20230208152039 56 92 0.0 1.7 0.00 0.00 0.00 84 1005.1
20230208151548 56 92 0.0 1.7 0.00 0.00 0.00 84 1005.1
20230208151040 56 92 0.0 1.7 0.00 0.00 0.00 84 1005.1
20230208150539 56 86 0.0 2.6 0.00 0.00 0.00 84 1005.1
20230208150043 56 0 0.0 3.5 0.00 0.00 0.00 84 1005.1
20230208145541 56 0 0.9 3.5 0.00 0.00 0.00 85 1005.1
20230208145041 56 50 0.9 3.5 0.00 0.00 0.00 85 1005.0
20230208144549 56 82 0.9 2.6 0.00 0.00 0.00 86 1005.1
20230208144040 56 0 0.0 1.7 0.00 0.00 0.00 86 1005.0
20230208143540 56 130 0.0 0.9 0.00 0.00 0.00 85 1004.9
20230208143051 57 0 0.0 6.1 0.00 0.00 0.00 85 1005.0
20230208142539 57 130 0.0 6.1 0.00 0.00 0.00 86 1005.0
20230208142040 57 49 0.9 6.1 0.00 0.00 0.00 86 1005.0
20230208141557 57 0 0.0 1.7 0.00 0.00 0.00 86 1004.9
20230208141040 57 0 0.0 2.6 0.00 0.00 0.00 87 1004.9
20230208140540 57 157 0.0 2.6 0.00 0.00 0.00 87 1004.8
20230208140042 57 0 0.9 2.6 0.00 0.00 0.00 88 1004.9
20230208135539 57 0 0.0 2.6 0.00 0.00 0.00 88 1004.9
20230208135040 57 0 0.0 1.7 0.00 0.00 0.00 88 1004.9
20230208134548 57 189 0.0 1.7 0.00 0.00 0.00 88 1004.8
20230208134041 57 200 0.0 1.7 0.00 0.00 0.00 88 1004.8
20230208133539 57 0 0.0 2.6 0.00 0.00 0.00 88 1004.8
20230208133049 57 0 0.0 2.6 0.00 0.00 0.00 88 1004.9
20230208132540 57 334 0.0 1.7 0.00 0.00 0.00 88 1004.8
20230208132040 57 0 0.0 1.7 0.00 0.00 0.00 88 1004.8
20230208131547 57 17 0.0 1.7 0.00 0.00 0.00 88 1004.8
20230208131040 57 167 0.0 3.5 0.00 0.00 0.00 88 1004.8
20230208130539 57 225 0.0 3.5 0.00 0.00 0.00 88 1004.8
20230208130051 57 0 0.0 2.6 0.00 0.00 0.00 87 1004.8
20230208125540 57 0 0.0 2.6 0.00 0.00 0.00 87 1004.8
20230208125040 57 184 0.0 4.3 0.00 0.00 0.00 87 1004.8
20230208124546 57 250 0.0 4.3 0.00 0.00 0.00 87 1004.8
20230208124040 58 0 0.0 3.5 0.00 0.00 0.00 86 1004.8
20230208123540 58 0 0.0 3.5 0.00 0.00 0.00 86 1004.9
20230208123044 58 27 0.0 3.5 0.00 0.00 0.00 86 1004.8
20230208122540 58 171 0.0 3.5 0.00 0.00 0.00 85 1004.8
20230208122039 58 67 0.0 2.6 0.00 0.00 0.00 85 1004.8
20230208121547 58 55 0.9 2.6 0.00 0.00 0.00 85 1004.8
20230208121041 58 0 0.0 3.5 0.00 0.00 0.00 85 1004.8
20230208120540 59 280 0.0 3.5 0.00 0.00 0.00 85 1004.8
20230208120046 59 80 0.9 2.6 0.00 0.00 0.00 84 1004.7
20230208115540 59 236 0.9 1.7 0.00 0.00 0.00 84 1004.7
20230208115040 59 76 0.0 7.0 0.00 0.00 0.00 84 1004.6
20230208114558 59 180 0.0 7.0 0.00 0.00 0.00 84 1004.6
20230208114043 59 0 0.9 6.1 0.00 0.00 0.00 84 1004.6
20230208113540 59 74 0.9 4.3 0.00 0.00 0.00 85 1004.6
20230208113056 59 94 0.9 2.6 0.00 0.00 0.00 85 1004.5
20230208112539 59 209 0.0 2.6 0.00 0.00 0.00 84 1004.6
20230208112040 59 157 0.9 5.2 0.00 0.00 0.00 85 1004.5
20230208111543 59 95 0.0 5.2 0.00 0.00 0.00 84 1004.5
20230208111039 59 54 0.9 4.3 0.00 0.00 0.00 85 1004.6
20230208110540 59 146 0.0 4.3 0.00 0.00 0.00 85 1004.5
20230208110043 58 89 0.9 4.3 0.00 0.00 0.00 85 1004.6
20230208105546 58 0 0.9 4.3 0.00 0.00 0.00 85 1004.6
20230208105039 58 0 0.0 4.3 0.00 0.00 0.00 85 1004.7
20230208104548 58 258 0.0 4.3 0.00 0.00 0.00 86 1004.7
20230208104039 58 314 0.0 1.7 0.00 0.00 0.00 85 1004.7
20230208103542 58 0 0.0 2.6 0.00 0.00 0.00 85 1004.8
20230208103042 58 0 0.9 2.6 0.00 0.00 0.00 85 1004.8
20230208102540 59 9 0.0 1.7 0.00 0.00 0.00 85 1004.8
20230208102042 59 0 0.0 1.7 0.00 0.00 0.00 83 1004.8
20230208101545 59 0 0.0 1.7 0.00 0.00 0.00 83 1004.7
20230208101041 60 320 0.0 1.7 0.00 0.00 0.00 82 1004.7
20230208100542 60 314 0.0 1.7 0.00 0.00 0.00 82 1004.7
20230208100045 60 274 0.9 1.7 0.00 0.00 0.00 82 1004.8
20230208095540 60 274 0.0 2.6 0.00 0.00 0.00 81 1004.8
20230208095039 60 281 0.0 2.6 0.00 0.00 0.00 81 1004.8
20230208094550 60 292 0.0 2.6 0.00 0.00 0.00 81 1004.9
20230208094040 60 76 0.9 2.6 0.00 0.00 0.00 80 1004.8
20230208093549 60 67 0.0 4.3 0.00 0.00 0.00 80 1004.7
20230208093046 60 67 0.0 7.0 0.00 0.00 0.00 80 1004.9
20230208092539 61 161 0.0 7.0 0.00 0.00 0.00 80 1005.0
20230208092041 60 44 1.7 7.0 0.00 0.00 0.00 80 1005.1
20230208091542 61 150 0.0 3.5 0.00 0.00 0.00 80 1005.0
20230208091039 61 209 0.0 3.5 0.00 0.00 0.00 79 1004.9
20230208090540 61 87 0.0 2.6 0.00 0.00 0.00 78 1005.0
20230208090044 61 119 0.0 1.7 0.00 0.00 0.00 78 1004.9
20230208085540 61 235 0.0 1.7 0.00 0.00 0.00 77 1004.8
20230208085040 61 0 0.0 1.7 0.00 0.00 0.00 77 1004.7
20230208084544 62 177 0.0 1.7 0.00 0.00 0.00 77 1004.6
20230208084042 62 0 0.0 8.7 0.00 0.00 0.00 77 1004.6
20230208083540 62 0 0.9 8.7 0.00 0.00 0.00 77 1004.5
20230208083101 62 39 0.9 9.6 0.00 0.00 0.00 77 1004.5
20230208082539 62 32 1.7 9.6 0.00 0.00 0.00 77 1004.5
20230208082043 62 342 1.7 6.1 0.00 0.00 0.00 77 1004.5
20230208081549 62 140 0.0 1.7 0.00 0.00 0.00 76 1004.4
20230208081039 62 235 0.0 1.7 0.00 0.00 0.00 76 1004.3
20230208080540 62 296 0.9 3.5 0.00 0.00 0.00 76 1004.4
20230208080050 62 0 0.9 3.5 0.00 0.00 0.00 76 1004.2
20230208075539 62 0 0.0 2.6 0.00 0.00 0.00 75 1004.1
20230208075043 63 325 0.0 2.6 0.00 0.00 0.00 75 1004.1
20230208074549 63 238 0.9 4.3 0.00 0.00 0.00 74 1004.0
20230208074041 63 190 0.0 5.2 0.00 0.00 0.00 73 1004.0
20230208073539 63 261 0.9 5.2 0.00 0.00 0.00 73 1004.0
20230208073047 64 350 1.7 7.8 0.00 0.00 0.00 73 1003.9
20230208072545 64 232 1.7 7.8 0.00 0.00 0.00 74 1003.9
20230208072040 64 307 0.0 6.1 0.00 0.00 0.00 74 1003.9
20230208071550 64 259 0.9 7.0 0.00 0.00 0.00 74 1003.9
20230208071040 64 264 0.0 7.0 0.00 0.00 0.00 74 1003.9
20230208070543 64 235 0.0 7.0 0.00 0.00 0.00 73 1003.8
20230208070049 65 332 1.7 7.0 0.00 0.00 0.00 73 1003.8
20230208065539 65 189 1.7 6.1 0.00 0.00 0.00 73 1003.8
20230208065040 65 230 1.7 7.0 0.00 0.00 0.00 73 1003.9
20230208064552 65 251 2.6 7.0 0.00 0.00 0.00 72 1003.8
20230208064039 66 323 1.7 9.6 0.00 0.00 0.00 72 1003.7
20230208063539 66 269 2.6 9.6 0.00 0.00 0.00 73 1003.8
20230208063055 66 273 2.6 8.7 0.00 0.00 0.00 73 1003.7
20230208062541 66 255 1.7 8.7 0.00 0.00 0.00 73 1003.7
20230208062041 66 288 2.6 8.7 0.00 0.00 0.00 73 1003.7
20230208061557 67 303 2.6 8.7 0.00 0.00 0.00 72 1003.6
20230208061040 67 252 3.5 8.7 0.00 0.00 0.00 72 1003.5
20230208060540 67 245 2.6 9.6 0.00 0.00 0.00 71 1003.6
20230208060048 68 252 2.6 13.0 0.00 0.00 0.00 68 1003.5
20230208055541 68 291 4.3 13.0 0.00 0.00 0.00 68 1003.5
20230208055040 69 207 4.3 12.2 0.00 0.00 0.00 67 1003.4
20230208054547 69 260 3.5 11.3 0.00 0.00 0.00 68 1003.3
20230208054039 69 253 4.3 13.0 0.00 0.00 0.00 67 1003.3
20230208053540 69 15 5.2 13.0 0.00 0.00 0.00 66 1003.3
20230208053105 69 293 4.3 13.9 0.00 0.00 0.00 66 1003.3
20230208052541 69 306 5.2 13.9 0.00 0.00 0.00 65 1003.2
20230208052041 69 268 5.2 14.8 0.00 0.00 0.00 68 1003.1
20230208051606 69 302 7.8 14.8 0.00 0.00 0.00 67 1003.2
20230208051040 69 253 7.0 14.8 0.00 0.00 0.00 66 1003.3
20230208050540 70 246 5.2 13.0 0.00 0.00 0.00 65 1003.3
20230208050059 69 273 7.0 15.6 0.00 0.00 0.00 66 1003.3
20230208045540 70 279 7.0 15.6 0.00 0.00 0.00 64 1003.2
20230208045040 70 250 4.3 12.2 0.00 0.00 0.00 66 1003.4
20230208044558 70 184 6.1 13.0 0.00 0.00 0.00 66 1003.5
20230208044041 70 274 7.0 13.0 0.00 0.00 0.00 67 1003.4
20230208043540 70 275 8.7 14.8 0.00 0.00 0.00 63 1003.4
20230208043102 70 257 4.3 14.8 0.00 0.00 0.00 67 1003.4
20230208042542 70 288 5.2 14.8 0.00 0.00 0.00 64 1003.2
20230208042045 70 315 7.0 14.8 0.00 0.00 0.00 66 1003.3
20230208041546 71 337 5.2 13.9 0.00 0.00 0.00 66 1003.4
20230208041042 70 178 5.2 13.9 0.00 0.00 0.00 70 1003.4
20230208040542 70 219 6.1 13.9 0.00 0.00 0.00 69 1003.3
20230208040058 71 232 6.1 13.9 0.00 0.00 0.00 69 1003.5
20230208035540 71 311 4.3 13.9 0.00 0.00 0.00 72 1003.4
20230208035040 71 36 4.3 13.9 0.00 0.00 0.00 70 1003.5
20230208034622 70 52 5.2 13.9 0.00 0.00 0.00 70 1003.5
20230208034039 70 280 3.5 12.2 0.00 0.00 0.00 72 1003.6
20230208033544 70 306 4.3 12.2 0.00 0.00 0.00 72 1003.7
20230208033048 70 320 5.2 12.2 0.00 0.00 0.00 72 1003.6
20230208032540 70 304 5.2 13.0 0.00 0.00 0.00 71 1003.6
20230208032043 70 271 5.2 14.8 0.00 0.00 0.00 72 1003.6
20230208031549 70 290 6.1 14.8 0.00 0.00 0.00 70 1003.6
20230208031040 71 229 7.8 14.8 0.00 0.00 0.00 68 1003.6
20230208030540 71 304 7.0 16.5 0.00 0.00 0.00 67 1003.7
20230208030112 71 260 7.8 20.0 0.00 0.00 0.00 68 1003.7
20230208025539 71 313 8.7 20.0 0.00 0.00 0.00 66 1003.7
20230208025040 71 263 4.3 15.6 0.00 0.00 0.00 69 1003.6
20230208024545 71 265 7.8 15.6 0.00 0.00 0.00 68 1003.6
20230208024040 71 305 8.7 14.8 0.00 0.00 0.00 65 1003.7
20230208023540 72 259 6.1 14.8 0.00 0.00 0.00 66 1003.7
20230208023043 72 274 4.3 13.9 0.00 0.00 0.00 68 1003.7
20230208022539 72 284 7.0 13.9 0.00 0.00 0.00 66 1003.8
20230208022036 72 320 6.1 13.9 0.00 0.00 0.00 68 1003.8
20230208021552 71 270 6.1 13.9 0.00 0.00 0.00 70 1003.8
20230208021040 71 49 7.0 13.9 0.00 0.00 0.00 68 1003.8
20230208020539 70 281 6.1 14.8 0.00 0.00 0.00 67 1003.8
20230208020044 71 329 7.8 14.8 0.00 0.00 0.00 67 1003.7
20230208015540 72 245 7.0 13.9 0.00 0.00 0.00 67 1003.8
20230208015039 72 181 4.3 18.2 0.00 0.00 0.00 70 1003.8
20230208014547 71 305 8.7 18.2 0.00 0.00 0.00 67 1003.8
20230208014040 72 265 7.8 18.2 0.00 0.00 0.00 62 1003.8
20230208013539 72 277 6.1 13.9 0.00 0.00 0.00 66 1003.8
20230208013045 72 234 7.0 13.9 0.00 0.00 0.00 65 1003.9
20230208012543 72 261 7.8 13.9 0.00 0.00 0.00 65 1003.7
20230208012042 73 293 3.5 16.5 0.00 0.00 0.00 68 1003.7
20230208011546 72 209 6.1 16.5 0.00 0.00 0.00 68 1003.6
20230208011040 71 292 7.8 16.5 0.00 0.00 0.00 69 1003.6
20230208010540 73 264 7.0 14.8 0.00 0.00 0.00 70 1003.6
20230208010102 73 239 6.1 14.8 0.00 0.00 0.00 69 1003.7
20230208005541 73 225 4.3 14.8 0.00 0.00 0.00 68 1003.5
20230208005039 73 291 6.1 14.8 0.00 0.00 0.00 65 1003.6
20230208004544 74 73 3.5 13.9 0.00 0.00 0.00 67 1003.5
20230208004109 73 250 2.6 12.2 0.00 0.00 0.00 71 1003.6
20230208003539 72 253 5.2 12.2 0.00 0.00 0.00 69 1003.5
20230208003050 73 249 4.3 13.0 0.00 0.00 0.00 67 1003.4
20230208002540 73 216 5.2 13.0 0.00 0.00 0.00 65 1003.4
20230208002039 74 34 3.5 10.4 0.00 0.00 0.00 67 1003.4
20230208001553 73 277 4.3 13.9 0.00 0.00 0.00 68 1003.4
20230208001040 73 230 7.0 13.9 0.00 0.00 0.00 68 1003.5
20230208000541 73 307 5.2 12.2 0.00 0.00 0.00 65 1003.5
20230208000048 72 325 4.3 11.3 0.00 0.00 0.00 67 1003.4
20230207235540 72 245 3.5 9.6 0.00 0.00 0.00 69 1003.6
20230207235040 73 257 3.5 11.3 0.00 0.00 0.00 70 1003.6
20230207234552 72 257 4.3 12.2 0.00 0.00 0.00 70 1003.6
20230207234040 71 288 6.1 13.0 0.00 0.00 0.00 68 1003.6
20230207233540 71 240 3.5 13.0 0.00 0.00 0.00 66 1003.7
20230207233053 71 290 7.0 12.2 0.00 0.00 0.00 68 1003.6
20230207232540 72 265 4.3 9.6 0.00 0.00 0.00 73 1003.6
20230207232042 70 254 2.6 10.4 0.00 0.00 0.00 77 1003.6
20230207231552 70 251 2.6 11.3 0.00 0.00 0.00 80 1003.7
20230207231039 69 281 4.3 11.3 0.00 0.00 0.00 78 1003.7
20230207230539 70 277 6.1 9.6 0.00 0.00 0.00 78 1003.6
20230207230052 70 329 4.3 11.3 0.00 0.00 0.00 78 1003.7
20230207225540 70 265 4.3 11.3 0.00 0.00 0.00 76 1003.6
20230207225041 71 299 4.3 11.3 0.00 0.00 0.00 77 1003.7
20230207224552 71 271 3.5 8.7 0.00 0.00 0.00 77 1003.7
20230207224044 71 253 3.5 8.7 0.00 0.00 0.00 77 1003.6
20230207223540 71 314 1.7 8.7 0.00 0.00 0.00 78 1003.8
20230207223052 71 253 2.6 13.0 0.00 0.00 0.00 77 1003.8
20230207222540 70 294 7.0 13.0 0.00 0.00 0.00 74 1003.7
20230207222040 71 311 6.1 14.8 0.00 0.00 0.00 74 1003.7
20230207221553 71 249 4.3 14.8 0.00 0.00 0.00 74 1003.8
20230207221039 71 282 5.2 13.9 0.00 0.00 0.00 75 1003.8
20230207220540 71 286 4.3 11.3 0.00 0.00 0.00 76 1003.8
20230207220101 70 267 5.2 11.3 0.00 0.00 0.00 75 1003.7
20230207215544 71 19 4.3 11.3 0.00 0.00 0.00 76 1003.7
20230207215040 70 273 4.3 12.2 0.00 0.00 0.00 80 1003.8
20230207214549 70 265 6.1 12.2 0.00 0.00 0.00 79 1003.9
20230207214040 69 278 3.5 12.2 0.00 0.00 0.00 82 1003.8
20230207213540 69 294 3.5 11.3 0.00 0.00 0.00 82 1003.8
20230207213053 69 250 4.3 11.3 0.00 0.00 0.00 82 1003.7
20230207212540 69 242 5.2 11.3 0.00 0.00 0.00 81 1003.7
20230207212040 69 285 3.5 11.3 0.00 0.00 0.00 81 1003.7
20230207211559 69 268 4.3 11.3 0.00 0.00 0.00 84 1003.7
20230207211040 67 284 3.5 9.6 0.00 0.00 0.00 84 1003.8
20230207210542 67 254 3.5 8.7 0.00 0.00 0.00 83 1003.8
20230207210047 67 229 4.3 9.6 0.00 0.00 0.00 83 1003.7
20230207205544 67 240 3.5 9.6 0.00 0.00 0.00 82 1003.8
20230207205042 67 235 3.5 8.7 0.00 0.00 0.00 82 1003.8
20230207204548 67 267 2.6 8.7 0.00 0.00 0.00 83 1003.7
20230207204041 67 238 3.5 8.7 0.00 0.00 0.00 83 1003.8
20230207203539 67 244 3.5 9.6 0.00 0.00 0.00 82 1003.7
20230207203050 67 234 2.6 9.6 0.00 0.00 0.00 83 1003.7
20230207202544 67 263 2.6 8.7 0.00 0.00 0.00 83 1003.7
20230207202040 67 223 2.6 8.7 0.00 0.00 0.00 85 1003.7
20230207201600 67 286 2.6 8.7 0.00 0.00 0.00 87 1003.6
20230207201041 66 244 1.7 6.1 0.00 0.00 0.00 87 1003.7
20230207200540 66 88 0.9 4.3 0.00 0.00 0.00 88 1003.8
20230207200057 66 226 0.0 1.7 0.00 0.00 0.00 88 1003.8
20230207195541 66 162 0.0 3.5 0.00 0.00 0.00 87 1003.8
20230207195040 66 146 0.0 3.5 0.00 0.00 0.00 87 1003.7
20230207194552 66 9 0.9 3.5 0.00 0.00 0.00 86 1003.7
20230207194044 66 202 0.0 2.6 0.00 0.00 0.00 87 1003.6
20230207193539 65 343 0.9 3.5 0.00 0.00 0.00 88 1003.7
20230207193051 65 263 0.9 3.5 0.00 0.00 0.00 88 1003.7
20230207192540 64 292 0.9 5.2 0.00 0.00 0.00 88 1003.6
20230207192039 64 0 0.0 5.2 0.00 0.00 0.00 88 1003.6
20230207191544 64 69 0.9 7.8 0.00 0.00 0.00 89 1003.6
20230207191040 64 86 1.7 7.8 0.00 0.00 0.00 88 1003.7
20230207190540 64 276 0.9 4.3 0.00 0.00 0.00 89 1003.6
20230207190051 64 129 0.9 4.3 0.00 0.00 0.00 89 1003.6
20230207185539 64 261 0.9 4.3 0.00 0.00 0.00 89 1003.6
20230207185040 63 51 0.0 5.2 0.00 0.00 0.00 90 1003.6
20230207184553 63 77 0.9 5.2 0.00 0.00 0.00 90 1003.6
20230207184042 63 44 1.7 5.2 0.00 0.00 0.00 90 1003.7
20230207183539 63 53 1.7 3.5 0.00 0.00 0.00 90 1003.6
20230207183052 63 258 0.9 3.5 0.00 0.00 0.00 90 1003.6
20230207182541 62 64 0.9 1.7 0.00 0.00 0.00 91 1003.6
20230207182040 62 15 0.0 2.6 0.00 0.00 0.00 91 1003.7
20230207181555 62 14 0.0 2.6 0.00 0.00 0.00 91 1003.6
20230207181039 62 149 0.0 1.7 0.00 0.00 0.00 91 1003.7
20230207180540 62 61 0.0 0.9 0.00 0.00 0.00 91 1003.6
20230207180054 62 0 0.0 1.7 0.00 0.00 0.00 91 1003.6
20230207175540 62 0 0.0 1.7 0.00 0.00 0.00 91 1003.7
20230207175040 62 0 0.0 2.6 0.00 0.00 0.00 91 1003.5
20230207174554 62 0 0.0 2.6 0.00 0.00 0.00 91 1003.5
20230207174040 62 0 0.0 1.7 0.00 0.00 0.00 91 1003.6
20230207173543 62 111 0.0 1.7 0.00 0.00 0.00 90 1003.6
20230207173058 62 0 0.0 1.7 0.00 0.00 0.00 90 1003.5
20230207172540 62 121 0.0 0.9 0.00 0.00 0.00 90 1003.6
20230207172039 62 0 0.0 3.5 0.00 0.00 0.00 89 1003.5
20230207171548 62 0 0.0 3.5 0.00 0.00 0.00 89 1003.5
20230207171040 62 273 0.0 1.7 0.00 0.00 0.00 88 1003.5
20230207170540 62 0 0.0 3.5 0.00 0.00 0.00 88 1003.5
20230207170107 63 0 0.0 3.5 0.00 0.00 0.00 88 1003.5
20230207165540 63 55 0.9 2.6 0.00 0.00 0.00 87 1003.5
20230207165041 63 146 0.0 6.1 0.00 0.00 0.00 87 1003.4
20230207164549 63 288 0.9 6.1 0.00 0.00 0.00 87 1003.3
20230207164040 63 309 0.9 6.1 0.00 0.00 0.00 86 1003.2
20230207163540 64 59 0.9 5.2 0.00 0.00 0.00 86 1003.2
20230207163047 64 250 0.9 3.5 0.00 0.00 0.00 86 1003.2
20230207162543 64 255 0.9 7.8 0.00 0.00 0.00 86 1003.3
20230207162040 64 250 1.7 7.8 0.00 0.00 0.00 86 1003.3
20230207161548 64 246 1.7 7.8 0.00 0.00 0.00 87 1003.2